Total_Precipitation_Accumulation
0.99 1.01 0.93 1.06 1.12 1.11 1.10 1.08 0.98 0.92 0.89 0.76 0.73 0.67 0.57 0.42 0.40 0.41 0.51 0.41 0.46 0.60 0.61 0.48 0.36 0.28 0.24 0.26 0.32 0.43 0.52 0.53 0.63 0.77 0.71 0.67 0.59 0.47 0.36 0.24 0.21 0.21 0.15
0.87 1.04 0.97 0.95 1.02 1.20 1.25 1.18 1.07 1.06 1.02 0.84 0.78 0.81 0.69 0.58 0.54 0.51 0.56 0.44 0.30 0.33 0.45 0.48 0.41 0.34 0.27 0.26 0.30 0.44 0.53 0.53 0.54 0.64 0.71 0.73 0.71 0.56 0.44 0.30 0.25 0.24 0.21
0.82 0.98 0.92 0.82 0.81 0.97 1.14 1.24 1.25 1.17 1.03 0.90 0.80 0.80 0.70 0.64 0.61 0.67 0.60 0.51 0.37 0.24 0.28 0.38 0.40 0.36 0.34 0.35 0.34 0.40 0.48 0.49 0.53 0.61 0.68 0.68 0.65 0.65 0.57 0.43 0.37 0.41 0.43
0.60 0.79 0.85 0.76 0.75 0.92 1.11 1.25 1.32 1.31 1.15 1.07 1.01 0.89 0.78 0.68 0.61 0.66 0.62 0.57 0.52 0.38 0.34 0.31 0.33 0.35 0.38 0.40 0.40 0.40 0.45 0.46 0.46 0.54 0.61 0.56 0.48 0.47 0.45 0.45 0.45 0.52 0.58
0.52 0.72 0.89 0.91 0.91 1.00 1.10 1.15 1.30 1.31 1.29 1.16 1.06 0.90 0.80 0.73 0.58 0.52 0.60 0.60 0.61 0.51 0.47 0.35 0.26 0.25 0.31 0.40 0.41 0.39 0.42 0.43 0.38 0.40 0.42 0.42 0.38 0.37 0.38 0.38 0.40 0.42 0.46
0.64 0.82 1.03 1.12 1.23 1.24 1.25 1.38 1.62 1.55 1.33 1.24 1.17 0.94 0.73 0.68 0.60 0.56 0.50 0.53 0.62 0.60 0.51 0.46 0.33 0.18 0.19 0.30 0.42 0.38 0.41 0.43 0.38 0.39 0.38 0.35 0.31 0.33 0.33 0.31 0.31 0.32 0.33
0.79 0.99 1.20 1.41 1.53 1.40 1.37 1.53 1.75 1.84 1.59 1.40 1.35 1.17 0.92 0.69 0.60 0.60 0.56 0.53 0.58 0.62 0.62 0.61 0.48 0.38 0.27 0.25 0.27 0.30 0.38 0.44 0.42 0.42 0.46 0.45 0.35 0.31 0.28 0.25 0.22 0.25 0.27
0.89 0.94 1.14 1.34 1.39 1.42 1.43 1.49 1.64 1.87 1.76 1.55 1.56 1.74 1.47 1.12 0.70 0.53 0.58 0.57 0.61 0.63 0.60 0.55 0.54 0.51 0.42 0.41 0.22 0.17 0.24 0.36 0.45 0.43 0.46 0.49 0.43 0.33 0.29 0.25 0.21 0.20 0.22
1.18 1.15 1.18 1.32 1.39 1.50 1.48 1.48 1.50 1.66 1.73 1.65 1.65 1.98 1.75 1.46 1.28 0.83 0.60 0.63 0.72 0.75 0.68 0.66 0.65 0.63 0.52 0.48 0.41 0.23 0.15 0.19 0.34 0.43 0.49 0.52 0.46 0.35 0.30 0.29 0.27 0.23 0.23
1.49 1.47 1.47 1.56 1.49 1.45 1.38 1.38 1.39 1.50 1.73 1.73 1.66 1.58 1.52 1.44 1.58 1.32 0.86 0.69 0.73 0.73 0.72 0.67 0.71 0.74 0.71 0.60 0.55 0.44 0.23 0.15 0.25 0.40 0.55 0.56 0.47 0.36 0.32 0.33 0.33 0.31 0.27
2.08 1.99 1.92 1.77 1.58 1.48 1.44 1.47 1.46 1.50 1.57 1.61 1.57 1.50 1.51 1.42 1.21 1.22 1.19 0.94 0.77 0.69 0.70 0.70 0.73 0.76 0.80 0.76 0.68 0.56 0.41 0.21 0.21 0.36 0.53 0.63 0.58 0.48 0.37 0.31 0.30 0.31 0.28
2.03 1.97 1.84 1.61 1.43 1.36 1.41 1.50 1.51 1.51 1.50 1.52 1.48 1.37 1.32 1.28 1.16 1.19 1.10 1.09 1.09 0.79 0.66 0.63 0.65 0.69 0.71 0.79 0.81 0.91 0.65 0.38 0.23 0.27 0.39 0.53 0.64 0.64 0.54 0.44 0.35 0.31 0.29
1.42 1.45 1.45 1.41 1.35 1.29 1.35 1.51 1.57 1.58 1.57 1.53 1.44 1.34 1.36 1.26 1.31 1.41 1.34 1.22 1.14 0.85 0.65 0.53 0.54 0.62 0.64 0.71 0.89 1.10 0.87 0.64 0.39 0.28 0.30 0.33 0.42 0.56 0.66 0.66 0.60 0.51 0.45
1.24 1.25 1.32 1.32 1.31 1.31 1.32 1.37 1.47 1.58 1.59 1.52 1.46 1.49 1.45 1.31 1.37 1.34 1.29 1.36 1.16 0.94 0.71 0.51 0.47 0.53 0.60 0.64 0.86 1.08 0.75 0.70 0.54 0.39 0.33 0.29 0.27 0.31 0.41 0.58 0.74 0.80 0.78
0.93 1.04 1.14 1.20 1.16 1.17 1.20 1.29 1.41 1.46 1.53 1.57 1.56 1.56 1.54 1.48 1.47 1.43 1.47 1.42 1.28 1.06 0.83 0.62 0.52 0.46 0.53 0.59 0.82 0.79 0.66 0.69 0.62 0.48 0.38 0.31 0.25 0.21 0.25 0.32 0.42 0.51 0.61
0.82 0.89 0.86 0.82 0.81 0.86 0.88 0.98 1.14 1.22 1.27 1.34 1.36 1.39 1.41 1.42 1.46 1.47 1.49 1.50 1.40 1.20 1.02 0.82 0.69 0.58 0.62 0.60 0.71 0.62 0.67 0.83 0.70 0.57 0.44 0.35 0.28 0.23 0.20 0.20 0.22 0.23 0.27
0.52 0.60 0.55 0.52 0.58 0.62 0.59 0.66 0.76 0.87 0.95 1.00 1.02 1.05 1.12 1.19 1.26 1.30 1.39 1.43 1.42 1.32 1.03 0.91 0.80 0.67 0.70 0.70 0.73 0.66 0.71 0.74 0.67 0.62 0.50 0.40 0.35 0.29 0.25 0.22 0.19 0.19 0.20
0.22 0.29 0.32 0.32 0.40 0.51 0.52 0.57 0.61 0.63 0.69 0.73 0.77 0.82 0.88 0.95 1.04 1.11 1.17 1.22 1.30 1.34 1.22 1.05 0.90 0.76 0.69 0.70 0.84 0.88 0.86 0.79 0.77 0.84 0.76 0.60 0.50 0.42 0.33 0.27 0.23 0.21 0.21
0.16 0.20 0.23 0.26 0.29 0.39 0.50 0.56 0.58 0.54 0.53 0.51 0.52 0.56 0.65 0.72 0.83 0.90 0.95 1.00 1.10 1.18 1.25 1.11 1.03 0.94 0.78 0.74 0.85 0.86 0.92 1.08 1.01 1.06 1.15 0.96 0.73 0.59 0.47 0.40 0.34 0.29 0.27
0.16 0.15 0.14 0.16 0.24 0.34 0.43 0.51 0.55 0.52 0.49 0.48 0.49 0.49 0.53 0.54 0.59 0.70 0.82 0.97 1.08 1.20 1.26 1.17 1.12 1.08 0.97 0.88 0.94 1.00 1.08 1.16 1.23 1.10 1.11 1.07 0.98 0.85 0.70 0.58 0.52 0.46 0.42
0.12 0.08 0.06 0.08 0.16 0.21 0.26 0.40 0.45 0.45 0.48 0.45 0.46 0.51 0.52 0.48 0.47 0.51 0.52 0.67 0.84 1.04 1.18 1.23 1.22 1.24 1.17 1.07 0.99 1.04 1.16 1.29 1.40 1.40 1.29 1.15 1.10 0.97 0.86 0.76 0.68 0.61 0.57
0.09 0.07 0.05 0.05 0.07 0.08 0.14 0.21 0.30 0.40 0.47 0.50 0.51 0.54 0.52 0.46 0.50 0.48 0.46 0.49 0.56 0.68 0.85 0.97 1.05 1.10 1.14 1.21 1.27 1.29 1.31 1.37 1.45 1.46 1.33 1.34 1.26 1.12 0.97 0.81 0.79 0.79 0.76
0.04 0.03 0.04 0.04 0.04 0.04 0.04 0.07 0.17 0.33 0.47 0.48 0.47 0.61 0.67 0.60 0.59 0.62 0.63 0.56 0.49 0.46 0.57 0.75 0.87 0.91 0.97 1.08 1.27 1.35 1.37 1.37 1.28 1.34 1.22 1.27 1.23 1.10 1.00 0.94 0.93 0.86 0.84
0.02 0.03 0.04 0.07 0.04 0.02 0.02 0.03 0.08 0.23 0.38 0.42 0.42 0.54 0.79 0.83 0.73 0.69 0.73 0.82 0.73 0.56 0.53 0.57 0.70 0.78 0.81 0.97 1.28 1.49 1.47 1.28 1.20 1.26 1.18 1.18 1.14 1.04 0.97 0.93 0.95 0.86 0.82
0.02 0.02 0.03 0.05 0.04 0.03 0.02 0.03 0.06 0.17 0.28 0.32 0.36 0.48 0.64 0.79 0.73 0.69 0.69 0.76 0.80 0.69 0.61 0.60 0.55 0.60 0.70 0.87 1.13 1.37 1.45 1.39 1.25 1.22 1.09 1.00 1.03 1.04 1.06 1.01 0.95 0.92 0.83
0.02 0.02 0.01 0.01 0.01 0.01 0.02 0.03 0.05 0.10 0.15 0.15 0.22 0.38 0.54 0.54 0.50 0.55 0.67 0.78 0.87 0.71 0.61 0.68 0.67 0.68 0.69 0.86 1.17 1.36 1.43 1.37 1.25 1.22 1.14 1.03 1.01 1.03 1.20 1.18 1.03 0.97 0.91